EZY74HQ EGKK-LGKL

Flight info

Callsign EZY74HQ
Flight time 3h 0m
Altitude 37000
Route BOGNA L612 HAWKE UL612 OGULO DCT OKASI DCT OKEKO DCT MOU DCT MADIV DCT MOKIP DCT TUFTA DCT ORSUD DCT BIBAN DCT EKPAL DCT NOSTO UL612 ARA A14 TRL J61 IPTAG
Aircraft A21N/M-SDE2E3FGHIRWXY/LB1

Departure

Time 2026-04-21 10:02
Airport London Gatwick Airport (EGKK)

Arrival

Time 2026-04-21 13:02
Airport Kalamata Airport (LGKL)
Time Latitude Longitude Altitude Speed Heading
2026-04-21 09:40 51.15846 -0.17516 214 ft 0 kts 347°
2026-04-21 09:45 51.15836 -0.17513 211 ft 4 kts 347°
2026-04-21 09:45 51.15810 -0.17503 213 ft 4 kts 347°
2026-04-21 09:46 51.15789 -0.17496 214 ft 4 kts 342°
2026-04-21 09:46 51.15770 -0.17477 217 ft 4 kts 291°
2026-04-21 09:46 51.15770 -0.17442 215 ft 4 kts 257°
2026-04-21 09:46 51.15773 -0.17419 215 ft 0 kts 257°
2026-04-21 09:51 51.15772 -0.17429 214 ft 4 kts 257°
2026-04-21 09:51 51.15760 -0.17516 211 ft 10 kts 258°
2026-04-21 09:51 51.15744 -0.17633 212 ft 11 kts 257°
2026-04-21 09:52 51.15726 -0.17760 209 ft 12 kts 257°
2026-04-21 09:52 51.15707 -0.17898 209 ft 13 kts 257°
2026-04-21 09:52 51.15687 -0.18045 211 ft 14 kts 259°
2026-04-21 09:52 51.15665 -0.18201 213 ft 15 kts 257°
2026-04-21 09:53 51.15636 -0.18336 211 ft 12 kts 221°
2026-04-21 09:53 51.15552 -0.18335 212 ft 13 kts 165°
2026-04-21 09:53 51.15461 -0.18301 217 ft 14 kts 167°
2026-04-21 09:53 51.15377 -0.18272 212 ft 0 kts 168°
2026-04-21 09:54 51.15371 -0.18270 216 ft 1 kts 167°
2026-04-21 09:54 51.15352 -0.18263 209 ft 5 kts 166°
2026-04-21 09:55 51.15308 -0.18247 212 ft 8 kts 168°
2026-04-21 09:55 51.15247 -0.18227 212 ft 10 kts 168°
2026-04-21 09:55 51.15191 -0.18281 219 ft 12 kts 258°
2026-04-21 09:55 51.15173 -0.18419 212 ft 14 kts 257°
2026-04-21 09:56 51.15152 -0.18575 209 ft 15 kts 259°
2026-04-21 09:56 51.15129 -0.18749 217 ft 17 kts 256°
2026-04-21 09:56 51.15101 -0.18939 215 ft 18 kts 258°
2026-04-21 09:56 51.15073 -0.19142 209 ft 16 kts 258°
2026-04-21 09:57 51.15022 -0.19262 210 ft 13 kts 184°
2026-04-21 09:57 51.14952 -0.19344 212 ft 15 kts 259°
2026-04-21 09:57 51.14930 -0.19515 211 ft 16 kts 258°
2026-04-21 09:57 51.14905 -0.19699 214 ft 18 kts 258°
2026-04-21 09:58 51.14877 -0.19901 212 ft 19 kts 258°
2026-04-21 09:58 51.14848 -0.20116 208 ft 20 kts 258°
2026-04-21 09:58 51.14818 -0.20331 207 ft 19 kts 257°
2026-04-21 09:58 51.14790 -0.20530 212 ft 13 kts 257°
2026-04-21 09:59 51.14781 -0.20600 212 ft 1 kts 258°
2026-04-21 09:59 51.14774 -0.20650 208 ft 6 kts 257°
2026-04-21 09:59 51.14737 -0.20717 211 ft 10 kts 195°
2026-04-21 09:59 51.14720 -0.20719 209 ft 0 kts 176°
2026-04-21 10:00 51.14655 -0.20699 218 ft 14 kts 165°
2026-04-21 10:00 51.14597 -0.20624 211 ft 12 kts 90°
2026-04-21 10:01 51.14599 -0.20588 218 ft 0 kts 78°
2026-04-21 10:01 51.14613 -0.20488 218 ft 41 kts 77°
2026-04-21 10:01 51.14742 -0.19551 216 ft 130 kts 77°
2026-04-21 10:01 51.14968 -0.17913 501 ft 166 kts 75°
2026-04-21 10:02 51.15496 -0.14049 2220 ft 184 kts 77°
2026-04-21 10:02 51.15760 -0.12002 2925 ft 196 kts 77°
2026-04-21 10:02 51.16001 -0.09792 3555 ft 210 kts 84°
2026-04-21 10:03 51.15696 -0.07400 3936 ft 238 kts 113°
2026-04-21 10:03 51.14601 -0.05341 4063 ft 252 kts 143°
2026-04-21 10:03 51.12936 -0.04387 4052 ft 259 kts 164°
2026-04-21 10:03 51.11180 -0.03890 4024 ft 260 kts 166°
2026-04-21 10:04 51.09406 -0.03363 4018 ft 258 kts 162°
2026-04-21 10:04 51.07674 -0.02623 4726 ft 258 kts 160°
2026-04-21 10:04 51.05945 -0.01838 5704 ft 259 kts 159°
2026-04-21 10:04 51.04197 -0.01037 6632 ft 263 kts 159°
2026-04-21 10:05 51.02425 -0.00210 7496 ft 267 kts 159°
2026-04-21 10:05 51.00635 0.00639 8423 ft 270 kts 159°
2026-04-21 10:05 50.98816 0.01505 9315 ft 275 kts 159°
2026-04-21 10:05 50.96966 0.02379 10216 ft 281 kts 159°
2026-04-21 10:06 50.95075 0.03266 11023 ft 285 kts 159°
2026-04-21 10:06 50.93160 0.04168 11839 ft 289 kts 159°
2026-04-21 10:06 50.91219 0.05094 12669 ft 294 kts 160°
2026-04-21 10:06 50.89246 0.06027 13477 ft 298 kts 160°
2026-04-21 10:07 50.87240 0.06970 14283 ft 304 kts 160°
2026-04-21 10:07 50.85177 0.07937 14852 ft 314 kts 161°
2026-04-21 10:07 50.83060 0.08931 15542 ft 321 kts 161°
2026-04-21 10:07 50.80909 0.09944 16288 ft 324 kts 162°
2026-04-21 10:08 50.78733 0.10964 17028 ft 328 kts 163°
2026-04-21 10:08 50.76525 0.11997 17719 ft 334 kts 163°
2026-04-21 10:08 50.74254 0.13072 18210 ft 347 kts 163°
2026-04-21 10:08 50.71875 0.14009 18669 ft 359 kts 170°
2026-04-21 10:09 50.69358 0.14646 18945 ft 375 kts 172°
2026-04-21 10:09 50.66732 0.15259 19374 ft 385 kts 173°
2026-04-21 10:09 50.64063 0.15891 19926 ft 390 kts 174°
2026-04-21 10:09 50.61354 0.16541 20437 ft 397 kts 174°
2026-04-21 10:10 50.58603 0.17210 20966 ft 403 kts 174°
2026-04-21 10:10 50.55816 0.17893 21509 ft 408 kts 175°
2026-04-21 10:10 50.52990 0.18585 22052 ft 413 kts 175°
2026-04-21 10:10 50.50174 0.19271 22584 ft 418 kts 176°
2026-04-21 10:11 50.47284 0.19974 23122 ft 422 kts 176°
2026-04-21 10:11 50.44365 0.20682 23648 ft 427 kts 176°
2026-04-21 10:11 50.41409 0.21399 24098 ft 432 kts 178°
2026-04-21 10:11 50.38424 0.22110 24544 ft 436 kts 178°
2026-04-21 10:12 50.35414 0.22835 25009 ft 439 kts 178°
2026-04-21 10:12 50.32388 0.23573 25475 ft 442 kts 178°
2026-04-21 10:12 50.29338 0.24315 25942 ft 445 kts 178°
2026-04-21 10:12 50.26275 0.25056 26392 ft 447 kts 178°
2026-04-21 10:13 50.23187 0.25861 26833 ft 453 kts 174°
2026-04-21 10:13 50.20187 0.27561 27240 ft 468 kts 156°
2026-04-21 10:13 50.17502 0.30504 27625 ft 476 kts 142°
2026-04-21 10:13 50.15020 0.33951 28046 ft 479 kts 140°
2026-04-21 10:14 50.12524 0.37412 28450 ft 481 kts 141°
2026-04-21 10:14 50.09974 0.40808 28837 ft 484 kts 143°
2026-04-21 10:14 50.07380 0.44166 29221 ft 486 kts 143°
2026-04-21 10:14 50.04760 0.47515 29600 ft 489 kts 143°
2026-04-21 10:15 50.02121 0.50876 29915 ft 493 kts 143°
2026-04-21 10:15 49.99461 0.54259 30269 ft 495 kts 143°
2026-04-21 10:15 49.96785 0.57661 30534 ft 498 kts 143°
2026-04-21 10:15 49.94101 0.61070 30903 ft 498 kts 143°
2026-04-21 10:16 49.91415 0.64474 31259 ft 499 kts 143°
2026-04-21 10:16 49.88724 0.67879 31593 ft 500 kts 143°
2026-04-21 10:16 49.86022 0.71292 31909 ft 502 kts 143°
2026-04-21 10:16 49.83315 0.74713 32225 ft 503 kts 143°
2026-04-21 10:17 49.80599 0.78132 32535 ft 504 kts 143°
2026-04-21 10:17 49.77875 0.81567 32827 ft 505 kts 143°
2026-04-21 10:17 49.75146 0.85000 33111 ft 507 kts 143°
2026-04-21 10:17 49.72405 0.88436 33381 ft 507 kts 143°
2026-04-21 10:18 49.69701 0.91824 33649 ft 508 kts 143°
2026-04-21 10:18 49.66952 0.95263 33897 ft 509 kts 143°
2026-04-21 10:18 49.64199 0.98707 34196 ft 508 kts 143°
2026-04-21 10:18 49.61458 1.02126 34471 ft 507 kts 143°
2026-04-21 10:19 49.58718 1.05538 34732 ft 505 kts 143°
2026-04-21 10:19 49.55988 1.08938 34983 ft 504 kts 143°
2026-04-21 10:19 49.53262 1.12325 35231 ft 503 kts 143°
2026-04-21 10:19 49.50544 1.15695 35443 ft 501 kts 143°
2026-04-21 10:20 49.47829 1.19056 35703 ft 499 kts 143°
2026-04-21 10:20 49.45128 1.22397 35929 ft 498 kts 143°
2026-04-21 10:20 49.42427 1.25728 36134 ft 497 kts 143°
2026-04-21 10:20 49.39734 1.29045 36338 ft 496 kts 143°
2026-04-21 10:21 49.37043 1.32360 36538 ft 495 kts 143°
2026-04-21 10:21 49.34357 1.35663 36722 ft 495 kts 143°
2026-04-21 10:21 49.31664 1.38968 36862 ft 496 kts 143°
2026-04-21 10:21 49.28971 1.42269 36998 ft 496 kts 143°
2026-04-21 10:22 49.26277 1.45561 37196 ft 495 kts 143°
2026-04-21 10:22 49.20898 1.52116 37248 ft 494 kts 143°
2026-04-21 10:23 49.15528 1.58655 37218 ft 494 kts 143°
2026-04-21 10:23 49.10152 1.65181 37210 ft 494 kts 143°
2026-04-21 10:24 49.04776 1.71691 36516 ft 492 kts 142°
2026-04-21 10:24 49.02095 1.74931 36795 ft 493 kts 142°
2026-04-21 10:24 48.99398 1.78187 36934 ft 497 kts 142°
2026-04-21 10:25 48.93916 1.84779 37009 ft 509 kts 142°
2026-04-21 10:25 48.88337 1.91477 37006 ft 511 kts 142°
2026-04-21 10:26 48.82752 1.98159 37001 ft 511 kts 142°
2026-04-21 10:26 48.77170 2.04834 37000 ft 510 kts 142°
2026-04-21 10:27 48.71627 2.11434 37001 ft 510 kts 142°
2026-04-21 10:27 48.66045 2.18057 37001 ft 510 kts 142°
2026-04-21 10:28 48.60457 2.24666 37001 ft 510 kts 142°
2026-04-21 10:28 48.54874 2.31251 37002 ft 509 kts 142°
2026-04-21 10:29 48.49290 2.37818 37002 ft 509 kts 142°
2026-04-21 10:29 48.43711 2.44365 37002 ft 508 kts 142°
2026-04-21 10:30 48.38130 2.50899 37001 ft 508 kts 142°
2026-04-21 10:30 48.32545 2.57410 37002 ft 508 kts 142°
2026-04-21 10:31 48.26767 2.63471 36999 ft 507 kts 152°
2026-04-21 10:31 48.20420 2.68067 37003 ft 507 kts 153°
2026-04-21 10:32 48.14199 2.73017 37001 ft 506 kts 152°
2026-04-21 10:32 48.08014 2.77909 37000 ft 506 kts 155°
2026-04-21 10:33 48.01827 2.82823 36995 ft 506 kts 141°
2026-04-21 10:33 47.99362 2.86560 36999 ft 507 kts 128°
2026-04-21 10:33 47.97407 2.90937 37006 ft 506 kts 121°
2026-04-21 10:33 47.95601 2.95429 37913 ft 504 kts 121°
2026-04-21 10:34 47.93830 2.99844 37752 ft 491 kts 121°
2026-04-21 10:34 47.92060 3.04177 37385 ft 488 kts 122°
2026-04-21 10:34 47.90273 3.08491 37215 ft 489 kts 122°
2026-04-21 10:35 47.86667 3.17104 37128 ft 491 kts 122°
2026-04-21 10:35 47.83046 3.25725 37127 ft 491 kts 122°
2026-04-21 10:36 47.79421 3.34334 37126 ft 491 kts 122°
2026-04-21 10:36 47.75784 3.42944 37127 ft 493 kts 122°
2026-04-21 10:37 47.72132 3.51552 37115 ft 492 kts 123°
2026-04-21 10:37 47.68484 3.60130 37114 ft 492 kts 123°
2026-04-21 10:38 47.64823 3.68702 37109 ft 492 kts 123°
2026-04-21 10:38 47.61161 3.77259 37105 ft 492 kts 123°
2026-04-21 10:39 47.57523 3.85753 37098 ft 491 kts 123°
2026-04-21 10:39 47.53844 3.94282 37096 ft 491 kts 123°
2026-04-21 10:40 47.50167 4.02793 37085 ft 490 kts 123°
2026-04-21 10:40 47.46495 4.11270 37086 ft 490 kts 123°
2026-04-21 10:41 47.42816 4.19743 37088 ft 491 kts 123°
2026-04-21 10:41 47.39111 4.28206 37083 ft 491 kts 123°
2026-04-21 10:42 47.35402 4.36665 37083 ft 491 kts 123°
2026-04-21 10:42 47.32323 4.43689 37081 ft 491 kts 123°
2026-04-21 10:43 47.28607 4.52130 37056 ft 490 kts 123°
2026-04-21 10:43 47.24895 4.60547 37079 ft 491 kts 123°
2026-04-21 10:44 47.21169 4.68970 37074 ft 491 kts 123°
2026-04-21 10:44 47.17431 4.77383 37076 ft 491 kts 123°
2026-04-21 10:45 47.13693 4.85788 37077 ft 491 kts 124°
2026-04-21 10:45 47.09950 4.94168 37080 ft 491 kts 124°
2026-04-21 10:46 47.06193 5.02564 37045 ft 492 kts 124°
2026-04-21 10:46 47.02463 5.10885 37053 ft 491 kts 124°
2026-04-21 10:47 46.98692 5.19228 37057 ft 491 kts 124°
2026-04-21 10:47 46.94927 5.27574 37054 ft 491 kts 124°
2026-04-21 10:48 46.91163 5.35918 37061 ft 492 kts 124°
2026-04-21 10:48 46.87372 5.44270 37052 ft 493 kts 124°
2026-04-21 10:49 46.83570 5.52599 37039 ft 493 kts 124°
2026-04-21 10:49 46.79766 5.60906 37047 ft 492 kts 124°
2026-04-21 10:50 46.75965 5.69199 37042 ft 492 kts 124°
2026-04-21 10:50 46.72145 5.77497 37034 ft 494 kts 124°
2026-04-21 10:51 46.68310 5.85794 37029 ft 494 kts 125°
2026-04-21 10:51 46.64473 5.94079 37032 ft 494 kts 125°
2026-04-21 10:52 46.60634 6.02361 37033 ft 494 kts 125°
2026-04-21 10:52 46.56784 6.10639 37045 ft 495 kts 125°
2026-04-21 10:53 46.52937 6.18861 37043 ft 496 kts 125°
2026-04-21 10:53 46.49060 6.27140 37043 ft 496 kts 125°
2026-04-21 10:54 46.45179 6.35407 37050 ft 496 kts 125°
2026-04-21 10:54 46.41289 6.43662 37059 ft 496 kts 125°
2026-04-21 10:55 46.37382 6.51911 37018 ft 497 kts 125°
2026-04-21 10:55 46.33477 6.60155 37013 ft 496 kts 125°
2026-04-21 10:56 46.29571 6.68367 37015 ft 495 kts 125°
2026-04-21 10:56 46.25661 6.76574 37006 ft 496 kts 126°
2026-04-21 10:57 46.21740 6.84775 37019 ft 497 kts 125°
2026-04-21 10:57 46.17804 6.92982 36996 ft 497 kts 126°
2026-04-21 10:58 46.13858 7.01180 36954 ft 497 kts 126°
2026-04-21 10:58 46.09917 7.09346 36989 ft 496 kts 126°
2026-04-21 10:59 46.05975 7.17473 36999 ft 495 kts 126°
2026-04-21 10:59 46.02039 7.25578 36988 ft 494 kts 126°
2026-04-21 11:00 45.98106 7.33690 36982 ft 494 kts 126°
2026-04-21 11:00 45.94155 7.41788 36949 ft 495 kts 126°
2026-04-21 11:01 45.90191 7.49773 36938 ft 493 kts 128°
2026-04-21 11:01 45.86121 7.57697 36972 ft 493 kts 127°
2026-04-21 11:02 45.80042 7.69612 36963 ft 493 kts 127°
2026-04-21 11:02 45.75996 7.77522 36961 ft 492 kts 127°
2026-04-21 11:03 45.71937 7.85430 36961 ft 493 kts 127°
2026-04-21 11:03 45.69908 7.89384 36522 ft 492 kts 127°
2026-04-21 11:03 45.67884 7.93318 36798 ft 494 kts 127°
2026-04-21 11:04 45.65830 7.97296 36937 ft 498 kts 127°
2026-04-21 11:04 45.63761 8.01298 36993 ft 505 kts 127°
2026-04-21 11:04 45.59568 8.09390 37007 ft 506 kts 127°
2026-04-21 11:05 45.55373 8.17464 37001 ft 506 kts 127°
2026-04-21 11:05 45.51177 8.25537 37001 ft 507 kts 127°
2026-04-21 11:06 45.46974 8.33596 37002 ft 507 kts 127°
2026-04-21 11:06 45.42764 8.41641 37002 ft 507 kts 127°
2026-04-21 11:07 45.38550 8.49675 37001 ft 506 kts 127°
2026-04-21 11:07 45.34336 8.57690 37002 ft 506 kts 127°
2026-04-21 11:08 45.30113 8.65685 37001 ft 506 kts 127°
2026-04-21 11:08 45.25885 8.73671 37002 ft 506 kts 127°
2026-04-21 11:09 45.21649 8.81639 37001 ft 506 kts 127°
2026-04-21 11:09 45.17410 8.89610 37001 ft 506 kts 127°
2026-04-21 11:10 45.13172 8.97567 37001 ft 506 kts 127°
2026-04-21 11:10 45.08954 9.05461 37002 ft 506 kts 127°
2026-04-21 11:11 45.04701 9.13386 37002 ft 506 kts 127°
2026-04-21 11:11 45.00439 9.21301 37002 ft 506 kts 128°
2026-04-21 11:12 44.96172 9.29204 37001 ft 506 kts 127°
2026-04-21 11:12 44.91900 9.37096 37001 ft 506 kts 128°
2026-04-21 11:13 44.87624 9.44977 37002 ft 506 kts 128°
2026-04-21 11:13 44.83340 9.52845 37002 ft 506 kts 128°
2026-04-21 11:14 44.79054 9.60698 37002 ft 506 kts 128°
2026-04-21 11:14 44.76938 9.64568 36995 ft 494 kts 128°
2026-04-21 11:14 44.76632 9.65129 36995 ft 493 kts 128°
2026-04-21 11:15 44.73349 9.71127 36990 ft 497 kts 128°
2026-04-21 11:15 44.69116 9.78827 36998 ft 498 kts 128°
2026-04-21 11:16 44.64883 9.86516 37000 ft 497 kts 128°
2026-04-21 11:16 44.61087 9.93396 37001 ft 497 kts 128°
2026-04-21 11:17 44.59356 9.96522 37002 ft 497 kts 128°
2026-04-21 11:18 44.57325 10.00188 37002 ft 497 kts 128°
2026-04-21 11:18 44.53104 10.07797 37002 ft 498 kts 128°
2026-04-21 11:19 44.48864 10.15461 37002 ft 498 kts 127°
2026-04-21 11:19 44.45064 10.23572 37002 ft 498 kts 122°
2026-04-21 11:20 44.41350 10.31763 37002 ft 499 kts 123°
2026-04-21 11:20 44.37623 10.39939 37001 ft 499 kts 123°
2026-04-21 11:21 44.33882 10.48111 37001 ft 499 kts 123°
2026-04-21 11:21 44.30140 10.56265 37001 ft 499 kts 123°
2026-04-21 11:22 44.26386 10.64407 37009 ft 499 kts 123°
2026-04-21 11:22 44.22630 10.72541 37003 ft 499 kts 123°
2026-04-21 11:23 44.18869 10.80677 37001 ft 500 kts 123°
2026-04-21 11:23 44.15094 10.88808 37001 ft 500 kts 123°
2026-04-21 11:24 44.13673 10.91861 37001 ft 500 kts 123°
2026-04-21 11:25 44.11330 10.96891 36998 ft 494 kts 123°
2026-04-21 11:25 44.09330 11.01174 36999 ft 494 kts 123°
2026-04-21 11:26 44.09034 11.01808 36999 ft 494 kts 123°
2026-04-21 11:26 44.06369 11.07512 37001 ft 494 kts 123°
2026-04-21 11:27 44.02113 11.16591 37000 ft 494 kts 123°
2026-04-21 11:27 43.99726 11.21662 37000 ft 494 kts 123°
2026-04-21 11:28 43.95935 11.29728 37000 ft 505 kts 123°
2026-04-21 11:28 43.92079 11.37882 37000 ft 503 kts 123°
2026-04-21 11:29 43.88239 11.45998 37002 ft 503 kts 123°
2026-04-21 11:29 43.84394 11.54099 37005 ft 503 kts 123°
2026-04-21 11:30 43.80547 11.62180 37002 ft 503 kts 124°
2026-04-21 11:30 43.76689 11.70255 37002 ft 503 kts 123°
2026-04-21 11:31 43.72829 11.78324 37001 ft 503 kts 124°
2026-04-21 11:31 43.68980 11.86321 37001 ft 503 kts 124°
2026-04-21 11:32 43.65098 11.94343 37001 ft 502 kts 124°
2026-04-21 11:32 43.61227 12.02358 37001 ft 502 kts 124°
2026-04-21 11:33 43.57352 12.10367 37001 ft 502 kts 124°
2026-04-21 11:33 43.53471 12.18364 37002 ft 501 kts 124°
2026-04-21 11:34 43.49590 12.26343 37002 ft 501 kts 124°
2026-04-21 11:34 43.45702 12.34307 37002 ft 501 kts 124°
2026-04-21 11:35 43.42461 12.40916 37002 ft 501 kts 124°
2026-04-21 11:35 43.38560 12.48872 37002 ft 501 kts 124°
2026-04-21 11:36 43.34650 12.56808 37002 ft 501 kts 124°
2026-04-21 11:36 43.30734 12.64732 37002 ft 501 kts 124°
2026-04-21 11:37 43.26822 12.72660 37001 ft 502 kts 124°
2026-04-21 11:37 43.22911 12.80588 37003 ft 502 kts 124°
2026-04-21 11:38 43.18984 12.88495 37002 ft 502 kts 124°
2026-04-21 11:38 43.15052 12.96403 37001 ft 502 kts 124°
2026-04-21 11:39 43.11102 13.04290 37002 ft 502 kts 125°
2026-04-21 11:39 43.07169 13.12105 37001 ft 502 kts 125°
2026-04-21 11:40 43.03214 13.19974 37002 ft 502 kts 124°
2026-04-21 11:40 42.99269 13.27856 37002 ft 502 kts 124°
2026-04-21 11:41 42.95306 13.35716 37002 ft 503 kts 125°
2026-04-21 11:41 42.91334 13.43553 37000 ft 499 kts 125°
2026-04-21 11:42 42.87393 13.51312 37000 ft 497 kts 125°
2026-04-21 11:42 42.83448 13.59053 37001 ft 497 kts 125°
2026-04-21 11:43 42.79510 13.66785 37002 ft 497 kts 125°
2026-04-21 11:43 42.75562 13.74505 37002 ft 497 kts 125°
2026-04-21 11:44 42.71611 13.82213 37001 ft 497 kts 125°
2026-04-21 11:44 42.67661 13.89911 37001 ft 496 kts 125°
2026-04-21 11:45 42.63698 13.97600 37002 ft 496 kts 125°
2026-04-21 11:45 42.59729 14.05270 37002 ft 496 kts 125°
2026-04-21 11:46 42.55756 14.12932 37001 ft 496 kts 125°
2026-04-21 11:46 42.51781 14.20588 37001 ft 496 kts 125°
2026-04-21 11:47 42.47799 14.28232 37002 ft 496 kts 126°
2026-04-21 11:47 42.43812 14.35867 37001 ft 496 kts 126°
2026-04-21 11:48 42.39844 14.43439 37001 ft 496 kts 126°
2026-04-21 11:48 42.35849 14.51056 37002 ft 496 kts 126°
2026-04-21 11:49 42.31844 14.58663 37002 ft 496 kts 126°
2026-04-21 11:49 42.27833 14.66260 36971 ft 498 kts 126°
2026-04-21 11:50 42.23775 14.73938 36988 ft 506 kts 126°
2026-04-21 11:50 42.19650 14.81717 37002 ft 513 kts 126°
2026-04-21 11:51 42.15468 14.89593 37002 ft 519 kts 126°
2026-04-21 11:51 42.11285 14.97436 37000 ft 519 kts 126°
2026-04-21 11:52 42.07042 15.05375 37001 ft 519 kts 126°
2026-04-21 11:52 42.02850 15.13202 37001 ft 519 kts 126°
2026-04-21 11:53 41.98618 15.21070 37001 ft 519 kts 126°
2026-04-21 11:53 41.94389 15.28931 37001 ft 519 kts 126°
2026-04-21 11:54 41.90152 15.36784 37002 ft 519 kts 126°
2026-04-21 11:54 41.85900 15.44626 37001 ft 520 kts 126°
2026-04-21 11:55 41.81650 15.52465 37001 ft 520 kts 126°
2026-04-21 11:55 41.77389 15.60293 37002 ft 520 kts 126°
2026-04-21 11:56 41.73119 15.68108 37001 ft 520 kts 126°
2026-04-21 11:56 41.68850 15.75915 37001 ft 520 kts 126°
2026-04-21 11:57 41.64568 15.83720 37001 ft 520 kts 126°
2026-04-21 11:57 41.60288 15.91509 37001 ft 520 kts 127°
2026-04-21 11:58 41.55996 15.99297 37002 ft 520 kts 127°
2026-04-21 11:58 41.51701 16.07068 37002 ft 520 kts 127°
2026-04-21 11:59 41.47391 16.14830 37001 ft 520 kts 127°
2026-04-21 11:59 41.43079 16.22583 37001 ft 521 kts 127°
2026-04-21 12:00 41.38771 16.30334 37002 ft 519 kts 127°
2026-04-21 12:00 41.34511 16.37970 37000 ft 512 kts 127°
2026-04-21 12:01 41.30262 16.45570 37002 ft 511 kts 127°
2026-04-21 12:01 41.26009 16.53151 37003 ft 511 kts 127°
2026-04-21 12:02 41.19623 16.64487 37002 ft 511 kts 127°
2026-04-21 12:03 41.15363 16.72035 37001 ft 511 kts 127°
2026-04-21 12:03 41.11128 16.79517 37001 ft 511 kts 127°
2026-04-21 12:04 41.06860 16.87047 37001 ft 511 kts 127°
2026-04-21 12:04 41.02579 16.94554 37001 ft 511 kts 127°
2026-04-21 12:05 40.98295 17.02055 37001 ft 511 kts 127°
2026-04-21 12:05 40.94005 17.09548 37001 ft 511 kts 127°
2026-04-21 12:06 40.89719 17.17037 37002 ft 511 kts 127°
2026-04-21 12:06 40.85420 17.24516 37002 ft 511 kts 127°
2026-04-21 12:07 40.81121 17.31991 37002 ft 511 kts 127°
2026-04-21 12:07 40.76822 17.39454 37001 ft 511 kts 128°
2026-04-21 12:08 40.72512 17.46897 37001 ft 511 kts 127°
2026-04-21 12:08 40.68200 17.54360 37001 ft 511 kts 127°
2026-04-21 12:09 40.63878 17.61806 37001 ft 511 kts 128°
2026-04-21 12:09 40.59549 17.69234 37001 ft 512 kts 128°
2026-04-21 12:10 40.55243 17.76609 37002 ft 512 kts 128°
2026-04-21 12:10 40.50905 17.84021 37001 ft 512 kts 128°
2026-04-21 12:11 40.46562 17.91428 37002 ft 512 kts 128°
2026-04-21 12:11 40.42216 17.98804 36999 ft 507 kts 128°
2026-04-21 12:12 40.37910 18.06112 37002 ft 506 kts 128°
2026-04-21 12:12 40.33593 18.13412 37003 ft 506 kts 128°
2026-04-21 12:13 40.29275 18.20708 37002 ft 506 kts 128°
2026-04-21 12:13 40.24953 18.27991 37002 ft 506 kts 128°
2026-04-21 12:14 40.20620 18.35261 37002 ft 507 kts 128°
2026-04-21 12:14 40.16289 18.42530 37001 ft 507 kts 128°
2026-04-21 12:15 40.11947 18.49793 37002 ft 507 kts 128°
2026-04-21 12:15 40.07603 18.57037 37001 ft 507 kts 128°
2026-04-21 12:16 40.03253 18.64279 37002 ft 507 kts 128°
2026-04-21 12:16 39.98898 18.71515 37001 ft 507 kts 128°
2026-04-21 12:17 39.94545 18.78735 37001 ft 507 kts 128°
2026-04-21 12:17 39.90175 18.85950 37002 ft 507 kts 128°
2026-04-21 12:18 39.85837 18.93113 37002 ft 507 kts 128°
2026-04-21 12:18 39.81443 19.00296 37001 ft 507 kts 130°
2026-04-21 12:19 39.76796 19.07200 37002 ft 507 kts 132°
2026-04-21 12:19 39.71991 19.13916 37002 ft 507 kts 134°
2026-04-21 12:20 39.67100 19.20526 37002 ft 507 kts 134°
2026-04-21 12:20 39.62210 19.27127 37002 ft 508 kts 134°
2026-04-21 12:21 39.57305 19.33726 37002 ft 508 kts 134°
2026-04-21 12:21 39.52397 19.40310 37001 ft 508 kts 134°
2026-04-21 12:22 39.47488 19.46883 37001 ft 508 kts 134°
2026-04-21 12:22 39.42571 19.53454 37001 ft 508 kts 134°
2026-04-21 12:23 39.37648 19.60018 37001 ft 508 kts 134°
2026-04-21 12:23 39.32722 19.66575 37001 ft 509 kts 134°
2026-04-21 12:24 39.27824 19.73080 37002 ft 509 kts 134°
2026-04-21 12:24 39.22887 19.79623 37002 ft 509 kts 134°
2026-04-21 12:25 39.17947 19.86152 37002 ft 509 kts 134°
2026-04-21 12:25 39.13003 19.92675 37001 ft 509 kts 134°
2026-04-21 12:26 39.08050 19.99192 37001 ft 509 kts 135°
2026-04-21 12:26 39.03095 20.05703 37002 ft 509 kts 135°
2026-04-21 12:27 38.98133 20.12206 37002 ft 509 kts 135°
2026-04-21 12:27 38.94010 20.17604 37002 ft 509 kts 135°
2026-04-21 12:28 38.89034 20.24091 37002 ft 510 kts 135°
2026-04-21 12:28 38.83254 20.31623 37002 ft 510 kts 135°
2026-04-21 12:29 38.79081 20.37047 37002 ft 510 kts 135°
2026-04-21 12:29 38.74101 20.43516 37002 ft 510 kts 135°
2026-04-21 12:30 38.69141 20.49936 37002 ft 510 kts 135°
2026-04-21 12:30 38.64153 20.56385 37002 ft 509 kts 135°
2026-04-21 12:31 38.58359 20.63848 37001 ft 505 kts 135°
2026-04-21 12:31 38.54250 20.69138 37001 ft 504 kts 135°
2026-04-21 12:32 38.49371 20.75399 37003 ft 504 kts 135°
2026-04-21 12:32 38.46871 20.78606 36993 ft 486 kts 135°
2026-04-21 12:32 38.44528 20.81609 36958 ft 470 kts 135°
2026-04-21 12:32 38.42248 20.84524 36644 ft 459 kts 135°
2026-04-21 12:33 38.40018 20.87374 36363 ft 448 kts 135°
2026-04-21 12:33 38.37841 20.90143 36096 ft 437 kts 135°
2026-04-21 12:33 38.35720 20.92847 35797 ft 427 kts 135°
2026-04-21 12:33 38.33638 20.95505 35363 ft 420 kts 135°
2026-04-21 12:34 38.31586 20.98124 34905 ft 415 kts 135°
2026-04-21 12:34 38.29547 21.00718 34417 ft 421 kts 135°
2026-04-21 12:34 38.27423 21.03418 33916 ft 443 kts 135°
2026-04-21 12:34 38.25210 21.06227 33406 ft 451 kts 135°
2026-04-21 12:35 38.22983 21.09058 32891 ft 454 kts 135°
2026-04-21 12:35 38.20743 21.11898 32353 ft 456 kts 135°
2026-04-21 12:35 38.18487 21.14757 31796 ft 459 kts 135°
2026-04-21 12:35 38.16216 21.17623 31227 ft 461 kts 135°
2026-04-21 12:36 38.13970 21.20468 30683 ft 463 kts 135°
2026-04-21 12:36 38.11710 21.23328 30148 ft 455 kts 135°
2026-04-21 12:36 38.09478 21.26139 29594 ft 448 kts 135°
2026-04-21 12:36 38.07281 21.28910 29040 ft 442 kts 135°
2026-04-21 12:37 38.05118 21.31638 28506 ft 435 kts 135°
2026-04-21 12:37 38.02979 21.34324 27967 ft 429 kts 135°
2026-04-21 12:37 38.00881 21.36969 27456 ft 422 kts 135°
2026-04-21 12:37 37.98810 21.39577 26930 ft 416 kts 135°
2026-04-21 12:38 37.96766 21.42142 26399 ft 411 kts 136°
2026-04-21 12:38 37.94747 21.44669 25894 ft 405 kts 136°
2026-04-21 12:38 37.92757 21.47163 25410 ft 399 kts 135°
2026-04-21 12:38 37.90799 21.49619 24926 ft 394 kts 135°
2026-04-21 12:39 37.88865 21.52047 24412 ft 389 kts 135°
2026-04-21 12:39 37.86954 21.54442 23918 ft 384 kts 135°
2026-04-21 12:39 37.85067 21.56806 23398 ft 379 kts 136°
2026-04-21 12:39 37.83203 21.59134 22804 ft 374 kts 136°
2026-04-21 12:40 37.81362 21.61429 22198 ft 370 kts 136°
2026-04-21 12:40 37.79539 21.63701 21595 ft 366 kts 136°
2026-04-21 12:40 37.77740 21.65945 20999 ft 362 kts 136°
2026-04-21 12:40 37.75955 21.68163 20411 ft 358 kts 136°
2026-04-21 12:41 37.74192 21.70355 19829 ft 354 kts 136°
2026-04-21 12:41 37.72444 21.72527 19254 ft 350 kts 136°
2026-04-21 12:41 37.70715 21.74674 18682 ft 347 kts 136°
2026-04-21 12:41 37.69007 21.76793 18114 ft 343 kts 136°
2026-04-21 12:42 37.67314 21.78894 17551 ft 340 kts 136°
2026-04-21 12:42 37.65639 21.80978 16993 ft 336 kts 136°
2026-04-21 12:42 37.64003 21.83009 16453 ft 333 kts 136°
2026-04-21 12:42 37.62359 21.85049 15907 ft 330 kts 136°
2026-04-21 12:43 37.60727 21.87064 15362 ft 327 kts 136°
2026-04-21 12:43 37.59112 21.89058 14822 ft 324 kts 136°
2026-04-21 12:43 37.57506 21.91041 14421 ft 322 kts 136°
2026-04-21 12:43 37.55910 21.93012 14130 ft 321 kts 136°
2026-04-21 12:44 37.54322 21.94975 13866 ft 319 kts 136°
2026-04-21 12:44 37.52740 21.96928 13624 ft 318 kts 136°
2026-04-21 12:44 37.51164 21.98871 13387 ft 317 kts 136°
2026-04-21 12:44 37.49593 22.00808 13138 ft 315 kts 136°
2026-04-21 12:45 37.48028 22.02733 12891 ft 314 kts 136°
2026-04-21 12:45 37.46471 22.04651 12640 ft 312 kts 136°
2026-04-21 12:45 37.44921 22.06560 12390 ft 311 kts 136°
2026-04-21 12:45 37.43377 22.08459 12139 ft 310 kts 136°
2026-04-21 12:46 37.41840 22.10348 11888 ft 308 kts 136°
2026-04-21 12:46 37.40306 22.12229 11637 ft 307 kts 136°
2026-04-21 12:46 37.38782 22.14099 11386 ft 306 kts 136°
2026-04-21 12:46 37.37262 22.15962 11136 ft 304 kts 136°
2026-04-21 12:47 37.35753 22.17813 10886 ft 303 kts 136°
2026-04-21 12:47 37.34244 22.19661 10633 ft 302 kts 136°
2026-04-21 12:47 37.32736 22.21433 10382 ft 300 kts 142°
2026-04-21 12:47 37.30908 22.22629 10120 ft 298 kts 166°
2026-04-21 12:48 37.28863 22.22707 9886 ft 296 kts 192°
2026-04-21 12:48 37.26970 22.21668 9728 ft 294 kts 214°
2026-04-21 12:48 37.25342 22.20120 9602 ft 294 kts 218°
2026-04-21 12:48 37.23761 22.18553 9476 ft 293 kts 218°
2026-04-21 12:49 37.22152 22.16989 9252 ft 291 kts 217°
2026-04-21 12:49 37.20548 22.15453 8962 ft 290 kts 217°
2026-04-21 12:49 37.18941 22.13931 8643 ft 289 kts 217°
2026-04-21 12:49 37.17333 22.12418 8315 ft 289 kts 217°
2026-04-21 12:50 37.15724 22.10905 7986 ft 289 kts 217°
2026-04-21 12:50 37.14117 22.09396 7673 ft 288 kts 217°
2026-04-21 12:50 37.12524 22.07903 7348 ft 285 kts 217°
2026-04-21 12:50 37.10973 22.06453 7164 ft 266 kts 217°
2026-04-21 12:51 37.09551 22.05124 6975 ft 244 kts 217°
2026-04-21 12:51 37.08224 22.03883 6662 ft 234 kts 217°
2026-04-21 12:51 37.07061 22.02489 6270 ft 233 kts 236°
2026-04-21 12:51 37.06589 22.00575 6103 ft 233 kts 267°
2026-04-21 12:52 37.06957 21.98615 6081 ft 235 kts 296°
2026-04-21 12:52 37.07928 21.96976 6101 ft 235 kts 309°
2026-04-21 12:52 37.08984 21.95418 6106 ft 234 kts 310°
2026-04-21 12:52 37.10041 21.93866 6105 ft 234 kts 310°
2026-04-21 12:53 37.11100 21.92311 6104 ft 234 kts 310°
2026-04-21 12:53 37.12158 21.90756 6100 ft 234 kts 310°
2026-04-21 12:53 37.13217 21.89201 6103 ft 234 kts 310°
2026-04-21 12:53 37.14275 21.87646 6099 ft 234 kts 310°
2026-04-21 12:54 37.15321 21.86112 6091 ft 223 kts 310°
2026-04-21 12:54 37.16463 21.84935 6069 ft 205 kts 332°
2026-04-21 12:54 37.17815 21.84470 6042 ft 199 kts 355°
2026-04-21 12:54 37.19170 21.84724 5703 ft 198 kts 19°
2026-04-21 12:55 37.20338 21.85636 5319 ft 200 kts 43°
2026-04-21 12:55 37.21296 21.86903 5011 ft 200 kts 45°
2026-04-21 12:55 37.22247 21.88182 4663 ft 201 kts 49°
2026-04-21 12:55 37.23165 21.89481 4301 ft 202 kts 52°
2026-04-21 12:56 37.24001 21.90908 3933 ft 203 kts 54°
2026-04-21 12:56 37.24830 21.92322 3707 ft 197 kts 54°
2026-04-21 12:56 37.25637 21.93701 3673 ft 196 kts 54°
2026-04-21 12:56 37.26223 21.95189 3599 ft 185 kts 82°
2026-04-21 12:57 37.26085 21.96721 3420 ft 174 kts 112°
2026-04-21 12:57 37.25407 21.97914 3119 ft 166 kts 141°
2026-04-21 12:57 37.24381 21.98538 2715 ft 165 kts 167°
2026-04-21 12:57 37.23246 21.98758 2423 ft 166 kts 172°
2026-04-21 12:58 37.22105 21.98994 2399 ft 166 kts 171°
2026-04-21 12:58 37.20961 21.99240 2420 ft 167 kts 171°
2026-04-21 12:58 37.19820 21.99488 2430 ft 167 kts 171°
2026-04-21 12:58 37.18679 21.99735 2430 ft 166 kts 171°
2026-04-21 12:59 37.17543 21.99984 2327 ft 163 kts 171°
2026-04-21 12:59 37.16478 22.00219 2074 ft 143 kts 171°
2026-04-21 12:59 37.15534 22.00431 1814 ft 136 kts 171°
2026-04-21 12:59 37.14605 22.00634 1603 ft 135 kts 171°
2026-04-21 13:00 37.13679 22.00840 1389 ft 135 kts 171°
2026-04-21 13:00 37.12769 22.01041 1178 ft 134 kts 171°
2026-04-21 13:00 37.11851 22.01245 964 ft 134 kts 169°
2026-04-21 13:00 37.10945 22.01517 754 ft 134 kts 167°
2026-04-21 13:01 37.10041 22.01779 542 ft 133 kts 169°
2026-04-21 13:01 37.09134 22.01992 340 ft 132 kts 170°
2026-04-21 13:01 37.08232 22.02213 132 ft 132 kts 171°
2026-04-21 13:01 37.07341 22.02420 37 ft 123 kts 169°
2026-04-21 13:02 37.06649 22.02583 39 ft 84 kts 169°
2026-04-21 13:02 37.06190 22.02691 37 ft 32 kts 170°
2026-04-21 13:02 37.05823 22.02776 36 ft 17 kts 169°
2026-04-21 13:03 37.05772 22.02886 38 ft 17 kts 121°
2026-04-21 13:03 37.05668 22.02939 39 ft 12 kts 168°
2026-04-21 13:03 37.05576 22.02962 39 ft 15 kts 159°
2026-04-21 13:03 37.05532 22.03075 40 ft 7 kts 103°
2026-04-21 13:04 37.05523 22.03118 40 ft 5 kts 103°
2026-04-21 13:04 37.05512 22.03174 40 ft 8 kts 103°
2026-04-21 13:04 37.05499 22.03253 40 ft 11 kts 94°
2026-04-21 13:04 37.05544 22.03266 40 ft 12 kts 263°
2026-04-21 13:05 37.05534 22.03241 40 ft 4 kts 245°
2026-04-21 13:05 37.05533 22.03237 40 ft 0 kts 244°
2026-04-21 13:08 37.05538 22.03251 40 ft 0 kts 283°
2026-04-21 13:47 37.05538 22.03250 40 ft 1 kts 282°
2026-04-21 13:47 37.05515 22.03202 40 ft 9 kts 245°
2026-04-21 13:47 37.05521 22.03120 40 ft 11 kts 284°
2026-04-21 13:47 37.05541 22.03023 40 ft 12 kts 287°
2026-04-21 13:48 37.05609 22.02955 39 ft 17 kts 345°
2026-04-21 13:48 37.05758 22.02919 39 ft 23 kts 350°
2026-04-21 13:48 37.05920 22.02882 39 ft 24 kts 349°
2026-04-21 13:48 37.06089 22.02842 39 ft 25 kts 349°
2026-04-21 13:49 37.06267 22.02799 39 ft 27 kts 349°
2026-04-21 13:49 37.06452 22.02758 39 ft 28 kts 349°
2026-04-21 13:49 37.06646 22.02712 39 ft 29 kts 349°
2026-04-21 13:49 37.06848 22.02665 39 ft 30 kts 349°
2026-04-21 13:50 37.07055 22.02617 39 ft 31 kts 349°
2026-04-21 13:50 37.07273 22.02568 39 ft 32 kts 349°
2026-04-21 13:50 37.07500 22.02516 39 ft 34 kts 349°
2026-04-21 13:50 37.07735 22.02459 39 ft 35 kts 349°
2026-04-21 13:51 37.07974 22.02404 40 ft 26 kts 349°
2026-04-21 13:51 37.08124 22.02368 40 ft 21 kts 350°
2026-04-21 13:51 37.08177 22.02300 40 ft 13 kts 265°
2026-04-21 13:51 37.08108 22.02242 40 ft 15 kts 168°
2026-04-21 13:52 37.08080 22.02249 41 ft 0 kts 169°
2026-04-21 13:52 37.07961 22.02279 42 ft 52 kts 169°
2026-04-21 13:52 37.07360 22.02417 37 ft 120 kts 169°
2026-04-21 13:52 37.06362 22.02649 108 ft 162 kts 170°
2026-04-21 13:53 37.05226 22.02910 598 ft 170 kts 171°
2026-04-21 13:53 37.04041 22.03162 1210 ft 175 kts 171°
2026-04-21 13:53 37.02824 22.03440 1878 ft 182 kts 170°
2026-04-21 13:53 37.01538 22.03769 2560 ft 194 kts 169°
2026-04-21 13:54 37.00184 22.04112 3306 ft 202 kts 169°
2026-04-21 13:54 36.98772 22.04458 4028 ft 214 kts 169°
2026-04-21 13:54 36.97263 22.04815 4667 ft 228 kts 170°
2026-04-21 13:54 36.95650 22.05187 5045 ft 244 kts 170°
2026-04-21 13:55 36.93901 22.05578 5441 ft 265 kts 170°
2026-04-21 13:55 36.92099 22.05992 6362 ft 260 kts 170°
2026-04-21 13:55 36.90343 22.06403 7374 ft 255 kts 170°
2026-04-21 13:55 36.88596 22.06808 8204 ft 256 kts 170°
2026-04-21 13:56 36.86856 22.07211 8928 ft 259 kts 170°
2026-04-21 13:56 36.85120 22.07610 9547 ft 248 kts 170°
2026-04-21 13:56 36.83421 22.08002 9902 ft 249 kts 170°
2026-04-21 13:56 36.81692 22.08406 10008 ft 263 kts 170°
2026-04-21 13:57 36.79798 22.08432 10153 ft 285 kts 195°
2026-04-21 13:57 36.78020 22.07213 10360 ft 304 kts 224°
2026-04-21 13:57 36.76851 22.04946 10614 ft 322 kts 251°
2026-04-21 13:57 36.76587 22.02140 10997 ft 334 kts 276°
2026-04-21 13:58 36.77293 21.99377 11566 ft 339 kts 299°
2026-04-21 13:58 36.78828 21.97145 12151 ft 343 kts 322°
2026-04-21 13:58 36.80956 21.95788 12715 ft 347 kts 344°
2026-04-21 13:58 36.83344 21.95267 13273 ft 351 kts 357°
2026-04-21 13:59 36.85781 21.95566 13793 ft 355 kts 12°
2026-04-21 13:59 36.88182 21.96337 14306 ft 358 kts 15°
2026-04-21 13:59 36.90595 21.97173 14800 ft 361 kts 15°
2026-04-21 13:59 36.93028 21.98012 15270 ft 364 kts 15°
2026-04-21 14:00 36.95488 21.98830 15718 ft 367 kts 14°
2026-04-21 14:00 36.97969 21.99644 16152 ft 370 kts 14°
2026-04-21 14:00 37.00471 22.00463 16565 ft 373 kts 14°
2026-04-21 14:00 37.02993 22.01278 16960 ft 376 kts 14°
2026-04-21 14:01 37.05520 22.02145 17333 ft 378 kts 19°
2026-04-21 14:01 37.07881 22.03606 17681 ft 381 kts 33°
2026-04-21 14:01 37.10033 22.05558 18031 ft 383 kts 37°
2026-04-21 14:01 37.12129 22.07562 18361 ft 385 kts 37°
2026-04-21 14:02 37.13576 22.08936 18580 ft 387 kts 37°
2026-04-21 14:02 37.16434 22.11637 18990 ft 390 kts 37°
2026-04-21 14:02 37.18610 22.13679 19284 ft 392 kts 37°
2026-04-21 14:03 37.23005 22.17790 19834 ft 396 kts 36°
2026-04-21 14:03 37.25214 22.19862 20095 ft 398 kts 37°
2026-04-21 14:03 37.27429 22.21957 20341 ft 399 kts 37°
2026-04-21 14:03 37.29653 22.24061 20585 ft 401 kts 37°
2026-04-21 14:04 37.31915 22.26125 20814 ft 403 kts 33°
2026-04-21 14:04 37.34396 22.27771 21036 ft 404 kts 21°
2026-04-21 14:04 37.37099 22.28737 21248 ft 405 kts
2026-04-21 14:04 37.39912 22.28950 21454 ft 407 kts 356°
2026-04-21 14:05 37.42709 22.28411 21652 ft 408 kts 345°
2026-04-21 14:05 37.45363 22.27159 21842 ft 409 kts 333°
2026-04-21 14:05 37.47756 22.25240 22031 ft 409 kts 321°
2026-04-21 14:05 37.49868 22.22832 22223 ft 410 kts 316°
2026-04-21 14:06 37.51919 22.20323 22409 ft 412 kts 315°
2026-04-21 14:06 37.53981 22.17805 22596 ft 413 kts 315°
2026-04-21 14:06 37.56060 22.15292 22779 ft 415 kts 316°
2026-04-21 14:06 37.58155 22.12786 22956 ft 416 kts 316°
2026-04-21 14:07 37.60256 22.10267 23126 ft 417 kts 316°
2026-04-21 14:07 37.62360 22.07741 23289 ft 418 kts 316°
2026-04-21 14:07 37.64439 22.05234 23451 ft 420 kts 315°
2026-04-21 14:07 37.66323 22.02425 23601 ft 420 kts 306°
2026-04-21 14:08 37.68033 21.99424 23751 ft 421 kts 305°
2026-04-21 14:08 37.69718 21.96394 23901 ft 423 kts 304°
2026-04-21 14:08 37.71410 21.93352 24054 ft 424 kts 305°
2026-04-21 14:08 37.73112 21.90305 24202 ft 425 kts 305°
2026-04-21 14:09 37.74823 21.87255 24347 ft 426 kts 305°
2026-04-21 14:09 37.76541 21.84200 24493 ft 427 kts 305°
2026-04-21 14:09 37.78264 21.81130 24637 ft 428 kts 305°
2026-04-21 14:09 37.79987 21.78052 24779 ft 429 kts 305°
2026-04-21 14:10 37.81716 21.74965 24920 ft 430 kts 305°
2026-04-21 14:10 37.83448 21.71868 25060 ft 432 kts 305°
2026-04-21 14:10 37.85183 21.68765 25197 ft 433 kts 305°
2026-04-21 14:10 37.86920 21.65652 25331 ft 434 kts 305°
2026-04-21 14:11 37.88663 21.62530 25466 ft 435 kts 305°
2026-04-21 14:11 37.90410 21.59402 25588 ft 436 kts 305°
2026-04-21 14:11 37.92162 21.56265 25706 ft 437 kts 305°
2026-04-21 14:11 37.93916 21.53117 25822 ft 438 kts 305°
2026-04-21 14:12 37.95647 21.50008 25941 ft 439 kts 305°
2026-04-21 14:12 37.97402 21.46842 26063 ft 440 kts 304°
2026-04-21 14:12 37.99162 21.43664 26184 ft 441 kts 304°
2026-04-21 14:12 38.00925 21.40481 26310 ft 442 kts 304°
2026-04-21 14:13 38.02692 21.37289 26440 ft 442 kts 304°
2026-04-21 14:13 38.04460 21.34089 26568 ft 443 kts 304°
2026-04-21 14:13 38.06228 21.30877 26695 ft 444 kts 304°
2026-04-21 14:13 38.08002 21.27659 26819 ft 445 kts 304°
2026-04-21 14:14 38.09780 21.24433 26954 ft 447 kts 304°
2026-04-21 14:14 38.11563 21.21198 27097 ft 448 kts 304°
2026-04-21 14:14 38.13350 21.17954 27240 ft 449 kts 304°
2026-04-21 14:14 38.15142 21.14698 27389 ft 450 kts 304°
2026-04-21 14:15 38.16940 21.11436 27550 ft 451 kts 304°
2026-04-21 14:15 38.18739 21.08160 27720 ft 453 kts 304°
2026-04-21 14:15 38.20541 21.04872 27903 ft 454 kts 304°
2026-04-21 14:15 38.22348 21.01567 28099 ft 456 kts 304°
2026-04-21 14:16 38.24163 20.98249 28311 ft 458 kts 304°
2026-04-21 14:16 38.25983 20.94920 28547 ft 459 kts 304°
2026-04-21 14:16 38.27811 20.91570 28809 ft 462 kts 304°
2026-04-21 14:16 38.29024 20.89344 29000 ft 463 kts 304°
2026-04-21 14:17 38.30864 20.85965 29319 ft 466 kts 304°
2026-04-21 14:17 38.32714 20.82564 29672 ft 469 kts 304°
2026-04-21 14:17 38.35187 20.78024 30187 ft 473 kts 304°
2026-04-21 14:17 38.37061 20.74565 30561 ft 476 kts 304°
2026-04-21 14:18 38.38949 20.71078 30914 ft 479 kts 304°
2026-04-21 14:18 38.40849 20.67571 31250 ft 482 kts 304°
2026-04-21 14:18 38.42140 20.65183 31468 ft 484 kts 304°
2026-04-21 14:18 38.44057 20.61637 31786 ft 487 kts 304°
2026-04-21 14:19 38.45961 20.58114 32095 ft 490 kts 304°
2026-04-21 14:19 38.47902 20.54520 32380 ft 494 kts 304°
2026-04-21 14:19 38.49848 20.50909 32744 ft 494 kts 304°
2026-04-21 14:19 38.51799 20.47289 33152 ft 494 kts 304°
2026-04-21 14:20 38.53745 20.43675 33550 ft 494 kts 304°
2026-04-21 14:20 38.55689 20.40059 33929 ft 494 kts 304°
2026-04-21 14:20 38.57658 20.36466 34301 ft 493 kts 307°
2026-04-21 14:20 38.60036 20.33330 34730 ft 491 kts 318°
2026-04-21 14:21 38.62616 20.30470 35014 ft 492 kts 319°
2026-04-21 14:21 38.64313 20.28619 35181 ft 492 kts 319°
2026-04-21 14:23 38.65380 20.27446 35293 ft 493 kts 319°
2026-04-21 14:23 38.67970 20.24575 35578 ft 493 kts 319°
2026-04-21 14:24 38.70551 20.21685 35874 ft 492 kts 318°
2026-04-21 14:24 38.73130 20.18788 36017 ft 496 kts 318°
2026-04-21 14:24 38.75736 20.15852 36035 ft 502 kts 318°
2026-04-21 14:25 38.81015 20.09887 36012 ft 508 kts 318°
2026-04-21 14:25 38.86310 20.03880 36002 ft 509 kts 318°
2026-04-21 14:26 38.91618 19.97873 36002 ft 509 kts 318°
2026-04-21 14:26 38.96875 19.91891 35998 ft 499 kts 318°
2026-04-21 14:27 39.02056 19.85980 36002 ft 502 kts 318°
2026-04-21 14:27 39.07301 19.79978 36003 ft 504 kts 318°
2026-04-21 14:28 39.12544 19.73986 36015 ft 504 kts 318°
2026-04-21 14:28 39.17781 19.67995 36010 ft 503 kts 318°
2026-04-21 14:29 39.23015 19.61994 36010 ft 503 kts 318°
2026-04-21 14:29 39.28204 19.56018 36011 ft 504 kts 318°
2026-04-21 14:30 39.33422 19.49978 36009 ft 504 kts 318°
2026-04-21 14:30 39.38649 19.43947 36018 ft 504 kts 318°
2026-04-21 14:31 39.43871 19.37909 36017 ft 503 kts 318°
2026-04-21 14:31 39.49090 19.31861 36014 ft 504 kts 317°
2026-04-21 14:32 39.54295 19.25803 36023 ft 502 kts 317°
2026-04-21 14:32 39.59482 19.19758 36010 ft 502 kts 317°
2026-04-21 14:33 39.64672 19.13702 36005 ft 501 kts 317°
2026-04-21 14:33 39.69848 19.07644 36002 ft 501 kts 317°
2026-04-21 14:34 39.75021 19.01571 36001 ft 501 kts 317°
2026-04-21 14:34 39.80193 18.95493 36001 ft 501 kts 317°
2026-04-21 14:35 39.85368 18.89403 36001 ft 502 kts 317°
2026-04-21 14:35 39.90539 18.83295 36002 ft 502 kts 317°
2026-04-21 14:36 39.95714 18.77175 36001 ft 502 kts 317°
2026-04-21 14:36 40.00879 18.71052 36001 ft 501 kts 317°
2026-04-21 14:37 40.06028 18.64931 36001 ft 500 kts 317°
2026-04-21 14:37 40.11168 18.58808 36002 ft 500 kts 317°
2026-04-21 14:38 40.16315 18.52671 36002 ft 500 kts 317°
2026-04-21 14:38 40.21448 18.46537 36002 ft 500 kts 317°
2026-04-21 14:39 40.26580 18.40387 36002 ft 500 kts 317°
2026-04-21 14:39 40.31675 18.34263 36002 ft 500 kts 317°
2026-04-21 14:40 40.36805 18.28098 36001 ft 499 kts 317°
2026-04-21 14:40 40.41913 18.21934 36002 ft 499 kts 317°
2026-04-21 14:41 40.47021 18.15759 36002 ft 499 kts 317°
2026-04-21 14:41 40.52129 18.09576 36001 ft 499 kts 317°
2026-04-21 14:42 40.57226 18.03388 36001 ft 499 kts 317°
2026-04-21 14:42 40.62320 17.97189 36002 ft 499 kts 317°
2026-04-21 14:43 40.67414 17.90980 36002 ft 499 kts 317°
2026-04-21 14:43 40.72504 17.84757 36001 ft 499 kts 317°
2026-04-21 14:44 40.77585 17.78534 36001 ft 498 kts 316°
2026-04-21 14:44 40.82656 17.72309 36002 ft 498 kts 316°
2026-04-21 14:45 40.87723 17.66069 36001 ft 498 kts 316°
2026-04-21 14:45 40.92737 17.59841 36001 ft 497 kts 316°
2026-04-21 14:46 40.97790 17.53592 36002 ft 497 kts 316°
2026-04-21 14:46 41.02846 17.47332 36002 ft 498 kts 316°
2026-04-21 14:47 41.07905 17.41059 36002 ft 498 kts 316°
2026-04-21 14:47 41.12960 17.34773 36001 ft 498 kts 316°
2026-04-21 14:48 41.17999 17.28501 36001 ft 497 kts 316°
2026-04-21 14:48 41.23036 17.22218 36002 ft 497 kts 316°
2026-04-21 14:49 41.28063 17.15918 36002 ft 497 kts 316°
2026-04-21 14:49 41.33089 17.09616 36002 ft 497 kts 316°
2026-04-21 14:50 41.37262 17.04367 36002 ft 497 kts 316°
2026-04-21 14:50 41.43133 16.96967 36002 ft 497 kts 316°
2026-04-21 14:51 41.48153 16.90626 36002 ft 497 kts 316°
2026-04-21 14:51 41.53163 16.84281 36000 ft 496 kts 316°
2026-04-21 14:52 41.58167 16.77942 36002 ft 496 kts 316°
2026-04-21 14:52 41.63174 16.71590 36002 ft 496 kts 316°
2026-04-21 14:53 41.68165 16.65221 36002 ft 496 kts 316°
2026-04-21 14:53 41.73123 16.58889 36001 ft 496 kts 316°
2026-04-21 14:54 41.78114 16.52512 36001 ft 496 kts 316°
2026-04-21 14:54 41.83101 16.46119 36001 ft 496 kts 316°
2026-04-21 14:55 41.88091 16.39725 36001 ft 496 kts 316°
2026-04-21 14:55 41.93073 16.33324 36001 ft 496 kts 316°
2026-04-21 14:56 41.98045 16.26896 35975 ft 497 kts 315°